Terminal Aerodrome Forecast
Issued by NWS Missoula, MT

Home | Current Version | Previous Version | Text Only | Print | Product List | Glossary On
Versions: 1 2 3 4 5 6 7 8 9 10 11 12 13 14 15 16
000
FTUS45 KMSO 201825 AAA
TAFGPI
TAF AMD
KGPI 201825Z 2018/2118 VRB03KT 5SM -SN SCT030 OVC060
      TEMPO 2018/2019 1SM -SN OVC020
     FM202100 16007KT 6SM -RA BR OVC030
     FM210300 18008KT 5SM BR BKN040
     FM210600 19005KT 3SM BR VCFG FEW020=

USA.gov is the U.S. government's official web portal to all federal, state and local government web resources and services.